Total_Precipitation_Accumulation
1.59 1.96 1.88 1.68 1.58 1.55 1.45 1.56 1.90 1.82 1.79 1.87 1.85 1.83 1.85 1.87 1.88 1.79 1.72 1.74 1.68 1.62
0.58 0.71 0.85 0.90 0.91 1.02 1.29 1.22 1.34 1.47 1.39 1.41 1.44 1.41 1.49 1.50 1.45 1.59 1.67 1.58 1.51 1.51
0.30 0.33 0.39 0.31 0.28 0.30 0.45 0.61 0.72 0.85 0.91 0.98 1.06 1.21 1.31 1.32 1.39 1.52 1.58 1.64 1.72 1.71
0.35 0.33 0.35 0.29 0.14 0.14 0.14 0.16 0.18 0.18 0.27 0.35 0.40 0.54 0.76 0.92 1.10 1.31 1.53 1.85 2.12 2.26
0.58 0.48 0.44 0.42 0.23 0.18 0.19 0.20 0.19 0.18 0.20 0.25 0.27 0.28 0.27 0.33 0.41 0.51 0.63 0.86 1.11 1.21
0.97 0.79 0.69 0.48 0.40 0.28 0.31 0.39 0.58 0.41 0.34 0.31 0.28 0.24 0.27 0.32 0.42 0.54 0.65 0.75 0.82 0.94
1.00 0.98 0.88 0.71 0.67 0.56 0.49 0.49 0.65 1.04 0.64 0.58 0.56 0.49 0.39 0.38 0.40 0.47 0.63 0.65 0.72 0.77
0.70 0.94 0.84 0.70 0.90 0.81 0.64 0.70 0.62 0.66 0.70 0.60 0.53 0.72 0.65 0.55 0.62 0.62 0.84 1.17 1.16 1.30
0.70 0.81 0.96 0.90 0.92 0.84 0.79 0.94 0.76 0.79 0.73 0.67 0.74 1.30 1.29 1.05 1.00 1.03 0.96 1.36 1.49 1.51
0.74 0.75 0.71 0.62 0.66 0.62 0.69 0.87 0.88 0.83 0.91 0.80 0.86 1.34 1.38 1.23 0.82 0.97 1.11 0.96 0.99 0.86
1.15 1.02 0.97 0.86 0.88 0.74 0.79 0.95 1.02 0.99 1.17 1.30 1.53 1.59 1.49 1.36 0.85 0.78 0.88 0.69 0.58 0.53
1.59 1.55 1.65 1.72 1.49 1.28 1.28 1.29 1.31 1.19 1.16 1.19 1.42 1.37 1.40 1.00 0.78 0.68 0.65 0.55 0.50 0.52
1.57 1.32 1.31 1.24 1.39 1.31 1.19 1.17 1.17 1.11 1.03 1.06 0.94 1.09 1.11 0.98 0.63 0.50 0.48 0.40 0.41 0.56
1.25 1.35 1.21 1.17 1.03 1.04 0.93 0.79 0.77 0.71 0.64 0.51 0.44 0.44 0.58 0.50 0.41 0.42 0.40 0.30 0.28 0.35